PulseSat

PulseSat

1998-067PS

Last updated on Dec. 17, 2018, 12:02 a.m. UTC

1 43847U 98067PS  18349.74526235  .00484331  00000-0  60226-2 0  9996
2 43847  51.6404 193.8738 0004729 160.2343 199.6455 15.57763908   468
UTC
Height (km)
Latitude
Longitude
Inclination
Orbital Period

Next 30 passes for location: Hong Kong

Rise time Rise Azimuth (degrees) Set time Set Azimuth (degrees) Duration Max altitude (degrees)

No matching passes for this satellites

PulseSat

PulseSat is the new satellites software and hardware trackering solution by Pulsely.
Satellite Two Line Element Set source: US Air Force Space Command

Download PulseSat for iOS
© 2017 Pulsely Limited